Weather History for KFLG - February, 2014

Change the Weather History Date:

Thursday, February 27, 2014

  Actual Average Record
Temperature  
Mean Temperature 40 °F 34 °F  
Max Temperature 51 °F 47 °F 64 °F (1921)
Min Temperature 29 °F 21 °F -12 °F (1962)
Degree Days  
Heating Degree Days 25 31  
Month to date heating degree days 759 890  
Since 1 July heating degree days 4578 4806  
Cooling Degree Days 0 0  
Month to date cooling degree days 0 0  
Year to date cooling degree days 0 0  
Moisture  
Dew Point 29 °F    
Average Humidity 62    
Maximum Humidity 85    
Minimum Humidity 39    
Precipitation  
Precipitation T in 0.08 in 0.80 in (1905)
Month to date precipitation 0.12 2.08  
Year to date precipitation 0.29 4.13  
Snow  
Snow 0.00 in 0.70 in 8.40 in (1951)
Month to date snowfall 2.1 20.2  
Since 1 July snowfall 33.5 72.5  
Snow Depth 0.00 in    
Sea Level Pressure  
Sea Level Pressure 29.83 in    
Wind  
Wind Speed 15 mph (SW)    
Max Wind Speed 39 mph    
Max Gust Speed 53 mph    
Visibility 10 miles    
Events Rain    
T = Trace of Precipitation, MM = Missing Value Source: NWS Daily Summary

Daily Weather History Graph

Daily Weather History Graph

Search for Another Location

Airport or City:

Trip Planner

Search our weather history database for the weather conditions in past years. The results will help you decide how hot, cold, wet, or windy it might be!

Date:

Astronomy

Feb. 27, 2014 Rise Set
Actual Time 6:58 AM MST 6:20 PM MST
Civil Twilight 6:33 AM MST 6:46 PM MST
Nautical Twilight 6:03 AM MST 7:15 PM MST
Astronomical Twilight 5:34 AM MST 7:44 PM MST
Moon 5:31 AM MST (2/27) 4:52 PM MST (2/27)
Length of Visible Light 12h 12m
Length of Day
11h 21m
Waning Crescent, 4% of the Moon is Illuminated
Feb 27
Waning Crescent
Mar 1
New
Mar 8
First Quarter
Mar 16
Full
Mar 23
Last Quarter

Hourly Weather History & Observations

Time (MST) Temp. Windchill Dew Point Humidity Pressure Visibility Wind Dir Wind Speed Gust Speed Precip Events Conditions
12:57 AM 39.9 °F 35.1 °F 30.0 °F 68% 29.88 in 10.0 mi WSW 6.9 mph - N/A   Clear
1:57 AM 35.1 °F - 28.0 °F 76% 29.89 in 10.0 mi Calm Calm - N/A   Clear
2:57 AM 36.0 °F 31.1 °F 30.0 °F 79% 29.86 in 10.0 mi SSW 5.8 mph - N/A   Clear
3:57 AM 30.0 °F - 26.1 °F 85% 29.88 in 10.0 mi Calm Calm - N/A   Clear
4:57 AM 33.1 °F 24.9 °F 28.9 °F 85% 29.87 in 10.0 mi SW 10.4 mph - N/A   Clear
5:57 AM 34.0 °F 28.0 °F 28.9 °F 82% 29.87 in 10.0 mi SW 6.9 mph - N/A   Partly Cloudy
6:57 AM 33.1 °F 25.5 °F 28.9 °F 85% 29.90 in 10.0 mi SW 9.2 mph - N/A   Clear
7:57 AM 37.9 °F 31.5 °F 30.9 °F 76% 29.88 in 10.0 mi SW 9.2 mph - N/A   Partly Cloudy
8:57 AM 42.1 °F 33.9 °F 30.9 °F 65% 29.87 in 10.0 mi SSW 17.3 mph - N/A   Partly Cloudy
9:57 AM 46.0 °F 39.9 °F 30.9 °F 56% 29.84 in 10.0 mi SSW 13.8 mph - N/A   Scattered Clouds
10:57 AM 46.9 °F - 30.9 °F 54% 29.81 in 10.0 mi South 19.6 mph 26.5 mph N/A   Clear
11:57 AM 46.9 °F - 30.9 °F 54% 29.82 in 10.0 mi SW 21.9 mph 32.2 mph N/A   Overcast
12:57 PM 45.0 °F 36.0 °F 34.0 °F 65% 29.79 in 10.0 mi SW 25.3 mph 36.8 mph 0.00 in Rain Light Rain
1:57 PM 48.0 °F - 34.0 °F 58% 29.73 in 10.0 mi SW 32.2 mph 44.9 mph 0.00 in   Mostly Cloudy
2:57 PM 50.0 °F - 27.0 °F 41% 29.70 in 10.0 mi SW 35.7 mph 52.9 mph N/A   Mostly Cloudy
3:57 PM 48.0 °F - 26.1 °F 42% 29.76 in 10.0 mi SW 33.4 mph 49.5 mph N/A   Mostly Cloudy
4:57 PM 46.9 °F - 26.1 °F 44% 29.78 in 10.0 mi SW 18.4 mph 34.5 mph N/A   Mostly Cloudy
5:57 PM 46.0 °F 38.0 °F 25.0 °F 44% 29.79 in 10.0 mi WSW 21.9 mph 31.1 mph N/A   Scattered Clouds
6:57 PM 45.0 °F 38.2 °F 26.1 °F 48% 29.83 in 10.0 mi SW 15.0 mph - N/A   Scattered Clouds
7:57 PM 43.0 °F 36.0 °F 28.9 °F 58% 29.84 in 10.0 mi WSW 13.8 mph 23.0 mph N/A   Partly Cloudy
8:57 PM 41.0 °F 33.1 °F 28.9 °F 62% 29.83 in 10.0 mi WSW 15.0 mph - N/A   Clear
9:57 PM 39.9 °F 32.5 °F 30.0 °F 68% 29.82 in 10.0 mi WSW 12.7 mph - N/A   Clear
10:57 PM 39.0 °F 31.8 °F 30.0 °F 70% 29.81 in 10.0 mi WSW 11.5 mph - N/A   Clear
11:57 PM 39.0 °F 31.8 °F 30.0 °F 70% 29.83 in 10.0 mi WSW 11.5 mph - N/A   Partly Cloudy